Date String (YYYY-MM-DD hh:mm:ss) UTC,Instrument flags,absolute air pressure of the measurement (hPa),sample flow rate (lpm),inlet stack bypass flow (lpm),air temperature of the measurement (°C),ambient temperature measured by the external sensor (°C),aerosol sample conditioner tube jacket temperature (°C),OPC LED temperature (°C),internal box temperature (°C),relative humidity of the measurement (%),span deviation,mass concentration of particles derived from Lorenz-Mie calculation of OPC scattering (μg/m³),mass concentration of particles derived from Lorenz-Mie calculation of OPC scattering (μg/m³),mass concentration of particles derived from Lorenz-Mie calculation of OPC scattering (μg/m³)
DateTimeUTC,F1_M11,P_M11,Q1_M11,Q2_M11,T1_M11,T2_M11,T3_M11,T4_M11,T5_M11,U1_M11,ZSPAN_M11,X0_M11,X2_M11,X1_M11
2024-03-06 18:00:00,SystemResetWarning,0821.3,4.99,000.00,020.3,019.8,000.0,028.6,022.0,18.0,0003.2,0019.63,0008.11,0006.66
2024-03-06 18:01:00,SystemResetWarning,0821.3,4.99,000.00,020.4,019.8,000.0,028.6,022.1,18.0,0003.4,0020.00,0008.05,0006.61
2024-03-06 18:02:00,SystemResetWarning,0821.3,5.00,000.00,020.4,019.8,000.0,028.6,022.1,18.0,0003.1,0020.29,0008.01,0006.58
2024-03-06 18:03:00,SystemResetWarning,0821.3,5.00,000.00,020.4,019.8,000.0,028.6,022.1,17.8,0003.3,0019.98,0007.99,0006.59
2024-03-06 18:04:00,SystemResetWarning,0821.3,5.01,000.00,020.4,019.9,000.0,028.6,022.1,18.1,0003.6,0019.30,0007.95,0006.56
2024-03-06 18:05:00,SystemResetWarning,0821.3,5.00,000.00,020.4,019.9,000.0,028.6,022.1,17.9,0004.0,0018.47,0007.84,0006.50
2024-03-06 18:06:00,SystemResetWarning,0821.2,4.99,000.00,020.5,019.9,000.0,028.7,022.1,17.8,0004.3,0018.94,0007.83,0006.46
2024-03-06 18:07:00,SystemResetWarning,0821.2,4.99,000.00,020.5,019.9,000.0,028.7,022.1,17.7,0004.3,0018.66,0007.85,0006.45
2024-03-06 18:08:00,SystemResetWarning,0821.2,5.00,000.00,020.5,019.9,000.0,028.7,022.1,17.8,0004.5,0017.81,0007.77,0006.40
2024-03-06 18:09:00,SystemResetWarning,0821.3,5.00,000.00,020.5,019.9,000.0,028.7,022.1,17.8,0004.2,0017.81,0007.74,0006.40
2024-03-06 18:10:00,SystemResetWarning,0821.2,5.00,000.00,020.5,020.0,000.0,028.7,022.2,17.6,0003.8,0019.91,0007.78,0006.44
2024-03-06 18:11:00,SystemResetWarning,0821.3,5.01,000.00,020.5,020.0,000.0,028.7,022.2,17.5,0003.3,0020.90,0007.73,0006.47
2024-03-06 18:12:00,SystemResetWarning,0821.3,5.01,000.00,020.5,020.0,000.0,028.7,022.2,17.6,0002.8,0021.20,0007.80,0006.51
2024-03-06 18:13:00,SystemResetWarning,0821.3,5.01,000.00,020.6,020.0,000.0,028.7,022.2,17.4,0003.1,0020.87,0007.89,0006.54
2024-03-06 18:14:00,SystemResetWarning,0821.3,5.00,000.00,020.6,020.0,000.0,028.7,022.2,17.6,0003.2,0021.08,0007.87,0006.54
2024-03-06 18:15:00,SystemResetWarning,0821.2,5.00,000.00,020.6,020.1,000.0,028.7,022.2,17.6,0003.1,0020.62,0007.88,0006.55
2024-03-06 18:16:00,SystemResetWarning,0821.2,5.00,000.00,020.6,020.1,000.0,028.7,022.3,17.7,0002.9,0021.32,0007.96,0006.60
2024-03-06 18:17:00,SystemResetWarning,0821.2,4.99,000.00,020.6,020.1,000.0,028.8,022.3,17.5,0002.4,0021.15,0007.99,0006.64
2024-03-06 18:18:00,SystemResetWarning,0821.2,4.99,000.00,020.6,020.1,000.0,028.8,022.3,17.2,0001.7,0021.52,0008.05,0006.68
2024-03-06 18:19:00,SystemResetWarning,0821.2,5.00,000.00,020.7,020.2,000.0,028.8,022.3,17.1,0001.7,0022.95,0008.11,0006.72
2024-03-06 18:20:00,SystemResetWarning,0821.2,5.00,000.00,020.7,020.2,000.0,028.8,022.3,17.3,0001.4,0023.53,0008.17,0006.74
2024-03-06 18:21:00,SystemResetWarning,0821.2,5.00,000.00,020.7,020.2,000.0,028.8,022.4,17.1,0001.6,0021.21,0008.18,0006.72
2024-03-06 18:22:00,SystemResetWarning,0821.2,5.00,000.00,020.7,020.2,000.0,028.8,022.4,16.9,0001.5,0020.23,0008.20,0006.70
2024-03-06 18:23:00,SystemResetWarning,0821.2,5.00,000.00,020.7,020.2,000.0,028.8,022.4,16.9,0002.1,0020.84,0008.24,0006.70
2024-03-06 18:24:00,SystemResetWarning,0821.1,4.99,000.00,020.7,020.2,000.0,028.8,022.4,16.8,0001.9,0021.73,0008.23,0006.69
2024-03-06 18:25:00,SystemResetWarning,0821.2,5.00,000.00,020.8,020.3,000.0,028.9,022.4,16.8,0001.9,0021.51,0008.17,0006.68
2024-03-06 18:26:00,SystemResetWarning,0821.1,5.00,000.00,020.8,020.3,000.0,028.9,022.5,16.7,0002.0,0022.08,0008.16,0006.65
2024-03-06 18:27:00,SystemResetWarning,0821.1,5.00,000.00,020.8,020.3,000.0,028.9,022.4,16.6,0001.9,0021.94,0008.09,0006.62
2024-03-06 18:28:00,SystemResetWarning,0821.0,5.01,000.00,020.8,020.3,000.0,028.9,022.5,16.6,0001.8,0021.69,0008.04,0006.58
2024-03-06 18:29:00,SystemResetWarning,0820.9,5.00,000.00,020.8,020.3,000.0,028.9,022.5,16.6,0002.5,0022.77,0008.01,0006.55
2024-03-06 18:30:00,SystemResetWarning,0821.1,4.99,000.00,020.8,020.3,000.0,028.9,022.5,16.8,0002.7,0022.19,0008.02,0006.53
2024-03-06 18:31:00,SystemResetWarning,0821.3,4.99,000.00,020.9,020.4,000.0,029.0,022.5,16.9,0002.6,0021.84,0008.00,0006.51
2024-03-06 18:32:00,SystemResetWarning,0821.0,5.00,000.00,020.9,020.4,000.0,029.0,022.5,16.7,0002.1,0022.59,0007.97,0006.49
2024-03-06 18:33:00,SystemResetWarning,0820.8,5.00,000.00,020.9,020.4,000.0,029.0,022.6,16.7,0002.2,0023.44,0007.95,0006.48
2024-03-06 18:34:00,SystemResetWarning,0820.8,5.00,000.00,020.9,020.4,000.0,029.0,022.6,16.6,0002.1,0023.42,0007.87,0006.44
2024-03-06 18:35:00,SystemResetWarning,0820.8,5.01,000.00,020.9,020.4,000.0,029.0,022.6,16.8,0002.2,0024.32,0007.83,0006.40
2024-03-06 18:36:00,SystemResetWarning,0820.8,5.01,000.00,020.9,020.4,000.0,029.0,022.6,17.1,0002.7,0024.10,0007.78,0006.35
2024-03-06 18:37:00,SystemResetWarning,0820.8,5.00,000.00,021.0,020.4,000.0,029.0,022.6,16.8,0003.0,0023.72,0007.73,0006.33
2024-03-06 18:38:00,SystemResetWarning,0821.0,4.99,000.00,021.0,020.5,000.0,029.1,022.7,16.8,0003.0,0023.98,0007.70,0006.32
2024-03-06 18:39:00,SystemResetWarning,0821.1,4.99,000.00,021.0,020.5,000.0,029.1,022.7,17.0,0003.4,0025.05,0007.72,0006.30
2024-03-06 18:40:00,SystemResetWarning,0821.1,5.00,000.00,021.0,020.5,000.0,029.1,022.7,17.2,0003.3,0024.79,0007.70,0006.29
2024-03-06 18:41:00,SystemResetWarning,0821.1,5.00,000.00,021.0,020.5,000.0,029.1,022.7,17.0,0003.1,0025.49,0007.66,0006.27
2024-03-06 18:42:00,SystemResetWarning,0821.1,5.00,000.00,021.0,020.5,000.0,029.1,022.7,16.9,0003.2,0025.38,0007.58,0006.25
2024-03-06 18:43:00,SystemResetWarning,0821.0,5.00,000.00,021.0,020.5,000.0,029.1,022.7,16.7,0003.5,0025.58,0007.54,0006.23
2024-03-06 18:44:00,SystemResetWarning,0820.9,5.00,000.00,021.0,020.5,000.0,029.2,022.7,16.4,0003.4,0024.82,0007.52,0006.21
2024-03-06 18:45:00,SystemResetWarning,0820.8,5.01,000.00,021.1,020.5,000.0,029.2,022.7,16.5,0003.4,0024.68,0007.55,0006.20
2024-03-06 18:46:00,SystemResetWarning,0820.8,5.01,000.00,021.1,020.6,000.0,029.2,022.8,16.6,0003.1,0022.66,0007.55,0006.19
2024-03-06 18:47:00,SystemResetWarning,0820.8,5.00,000.00,021.1,020.6,000.0,029.2,022.8,16.7,0002.2,0023.11,0007.58,0006.20
2024-03-06 18:48:00,SystemResetWarning,0820.8,4.99,000.00,021.1,020.6,000.0,029.2,022.8,16.7,0001.6,0022.81,0007.63,0006.21
2024-03-06 18:49:00,SystemResetWarning,0820.8,5.00,000.00,021.1,020.6,000.0,029.2,022.8,16.5,0001.6,0022.58,0007.66,0006.22
2024-03-06 18:50:00,SystemResetWarning,0820.8,5.00,000.00,021.1,020.6,000.0,029.3,022.8,16.3,0001.6,0021.53,0007.70,0006.25
2024-03-06 18:51:00,SystemResetWarning,0820.8,5.00,000.00,021.2,020.6,000.0,029.3,022.8,16.2,0000.9,0021.22,0007.71,0006.28
2024-03-06 18:52:00,SystemResetWarning,0820.9,5.00,000.00,021.2,020.6,000.0,029.3,022.8,16.5,0000.7,0020.62,0007.74,0006.31
2024-03-06 18:53:00,SystemResetWarning,0820.8,5.00,000.00,021.2,020.7,000.0,029.3,022.9,16.0,0000.8,0020.96,0007.87,0006.36
2024-03-06 18:54:00,SystemResetWarning,0820.8,5.01,000.00,021.2,020.7,000.0,029.3,022.9,15.9,0001.1,0020.29,0007.92,0006.38
2024-03-06 18:55:00,SystemResetWarning,0820.8,5.01,000.00,021.2,020.7,000.0,029.3,022.9,15.9,0001.5,0020.93,0007.96,0006.40
2024-03-06 18:56:00,SystemResetWarning,0820.8,4.99,000.00,021.2,020.7,000.0,029.3,022.9,15.8,0002.1,0021.12,0008.00,0006.45
2024-03-06 18:57:00,SystemResetWarning,0820.8,4.99,000.00,021.3,020.7,000.0,029.4,023.0,15.7,0002.8,0021.27,0008.00,0006.49
2024-03-06 18:58:00,SystemResetWarning,0820.7,4.99,000.00,021.3,020.7,000.0,029.4,023.0,15.4,0003.0,0021.22,0008.08,0006.52
2024-03-06 18:59:00,SystemResetWarning,0820.7,5.00,000.00,021.3,020.8,000.0,029.4,023.0,15.3,0004.0,0022.45,0008.11,0006.54
